This is the latest recevied weather packets stored in our database for station/object WB4YDL. If no packets are shown the sender has not sent any weather packets the latest 10 day(s).
| Time | Temp. | Humidity | Pressure | Rain* | Wind** | Luminosity | Snow |
|---|---|---|---|---|---|---|---|
| 1778041669 | 11.11° C | 99% | 1003.2 hPa | 0 mm | - | 0 W/m² | - |
| 1778041368 | 11.11° C | 99% | 1003 hPa | 0 mm | - | 0 W/m² | - |
| 1778041066 | 11.11° C | 99% | 1003 hPa | 1.27 mm | - | 0 W/m² | - |
| 1778040762 | 11.11° C | 99% | 1003.4 hPa | 4.32 mm | - | 0 W/m² | - |
| 1778040460 | 11.11° C | 99% | 1003.7 hPa | 7.87 mm | - | 0 W/m² | - |
| 1778040157 | 11.67° C | 99% | 1003.8 hPa | 6.1 mm | - | 0 W/m² | - |
| 1778039853 | 11.67° C | 99% | 1004.1 hPa | 1.27 mm | - | 0 W/m² | - |
| 1778039550 | 11.67° C | 99% | 1003.8 hPa | 0 mm | - | 0 W/m² | - |
| 1778039247 | 11.67° C | 99% | 1003.9 hPa | 0 mm | - | 0 W/m² | - |
| 1778038944 | 11.67° C | 99% | 1003.4 hPa | 0 mm | - | 0 W/m² | - |
| 1778038642 | 11.67° C | 99% | 1003.1 hPa | 0 mm | - | 0 W/m² | - |
| 1778038339 | 11.67° C | 99% | 1003.1 hPa | 0 mm | - | 0 W/m² | - |
| 1778038036 | 11.67° C | 99% | 1003.1 hPa | 0 mm | - | 0 W/m² | - |
| 1778037732 | 11.67° C | 99% | 1003.1 hPa | 0 mm | - | 0 W/m² | - |
| 1778037429 | 12.22° C | 99% | 1003.1 hPa | 0 mm | - | 0 W/m² | - |
| 1778037126 | 12.22° C | 99% | 1003.1 hPa | 0 mm | - | 0 W/m² | - |
| 1778036825 | 12.78° C | 99% | 1003.1 hPa | 0 mm | - | 0 W/m² | - |
| 1778036522 | 12.78° C | 99% | 1003.2 hPa | 0 mm | - | 0 W/m² | - |
| 1778036218 | 12.78° C | 99% | 1002.8 hPa | 1.78 mm | - | 0 W/m² | - |
| 1778035914 | 13.33° C | 99% | 1002.7 hPa | 3.05 mm | - | 0 W/m² | - |
| 1778035606 | 13.89° C | 99% | 1002.5 hPa | 6.1 mm | - | 0 W/m² | - |
| 1778035303 | 15° C | 99% | 1002 hPa | 7.87 mm | - | 0 W/m² | - |
| 1778034999 | 15° C | 99% | 1001.3 hPa | 7.11 mm | - | 0 W/m² | - |
| 1778034696 | 15.56° C | 99% | 1001.6 hPa | 9.65 mm | - | 0 W/m² | - |
| 1778034393 | 17.22° C | 99% | 1001.6 hPa | 4.83 mm | - | 0 W/m² | - |
* Rain latest hour (hover to see other rain measurements)
** Current wind speed in m/s (hover to see current wind gust speed)